Location: Capelle
(50.3413°N, 1.9974°E)
Time: 04:01:39
(UTC+00:00)

NOSS 3-4 (C) - Visible Passes

Search period start: 21 April 2026 00:00
Search period end: 01 May 2026 00:00
Orbit: 773 x 1438 km, 63.4° (Epoch: 26 December)

Date Brightness Start Highest point End Pass type
(mag) Time Alt. Az. Time Alt. Az. Time Alt. Az.
21 Apr 5.3 00:39:53 10° NW 00:45:26 32° NNE 00:51:46 10° E visible
21 Apr 4.0 02:30:40 10° NW 02:37:16 75° NE 02:45:03 10° SE visible
21 Apr 3.8 20:09:49 10° WSW 20:15:08 62° NW 20:21:08 10° NE visible
21 Apr 5.4 22:02:22 10° WNW 22:07:11 27° NNW 22:12:35 10° NE visible
21 Apr 5.5 23:54:46 10° NW 23:59:58 28° NNE 00:05:52 10° ENE visible
22 Apr 4.4 01:45:45 10° NW 01:52:08 57° NE 01:59:39 10° ESE visible
22 Apr 4.1 03:36:36 10° NW 03:43:07 48° WSW 03:50:40 10° SSE visible
22 Apr 3.3 19:24:46 10° SW 19:30:07 89° NW 19:36:06 10° NE visible
22 Apr 5.1 21:16:47 10° W 21:21:44 31° NNW 21:27:18 10° NE visible
22 Apr 5.6 23:09:31 10° NW 23:14:27 25° N 23:20:01 10° ENE visible
23 Apr 4.8 01:00:48 10° NW 01:06:54 44° NNE 01:14:01 10° ESE visible
23 Apr 3.8 02:51:32 10° NW 02:58:12 68° SW 03:06:03 10° SSE visible
23 Apr 4.8 20:31:15 10° W 20:36:22 39° NNW 20:42:09 10° NE visible
23 Apr 5.6 22:24:07 10° NW 22:28:55 25° N 22:34:17 10° NE visible
24 Apr 5.1 00:15:49 10° NW 00:21:35 35° NNE 00:28:13 10° E visible
24 Apr 3.8 02:06:33 10° NW 02:13:13 89° NE 02:21:06 10° SE visible
24 Apr 4.7 03:58:00 10° WNW 04:03:40 27° WSW 04:10:01 10° SSW visible
24 Apr 4.2 19:45:52 10° WSW 19:51:08 51° NW 19:57:05 10° NE visible
24 Apr 5.5 21:38:36 10° WNW 21:43:23 26° N 21:48:44 10° NE visible
24 Apr 5.3 23:30:45 10° NW 23:36:09 30° NNE 23:42:19 10° ENE visible
25 Apr 4.1 01:21:37 10° NW 01:28:08 67° NE 01:35:50 10° SE visible
25 Apr 4.3 03:12:38 10° NW 03:18:56 39° WSW 03:26:09 10° S visible
25 Apr 5.3 20:53:02 10° WNW 20:57:54 29° NNW 21:03:22 10° NE visible
25 Apr 5.5 22:45:36 10° NW 22:50:41 27° NNE 22:56:25 10° ENE visible
26 Apr 4.5 00:36:41 10° NW 00:42:58 51° NE 00:50:20 10° ESE visible
26 Apr 3.9 02:27:28 10° NW 02:34:05 56° SW 02:41:47 10° SSE visible
26 Apr 5.0 20:07:27 10° W 20:12:29 34° NNW 20:18:08 10° NE visible
26 Apr 5.6 22:00:17 10° NW 22:05:08 25° N 22:10:36 10° ENE visible
26 Apr 4.9 23:51:44 10° NW 23:57:41 40° NNE 00:04:36 10° E visible
27 Apr 3.7 01:42:26 10° NW 01:49:08 78° SW 01:57:01 10° SSE visible
27 Apr 4.9 03:34:19 10° WNW 03:39:23 21° WSW 03:44:59 10° SSW visible
27 Apr 5.5 21:14:50 10° WNW 21:19:36 25° N 21:24:57 10° NE visible
27 Apr 5.2 23:06:44 10° NW 23:12:20 33° NNE 23:18:45 10° E visible
28 Apr 3.8 00:57:29 10° NW 01:04:06 79° NE 01:11:56 10° SE visible
28 Apr 4.5 02:48:43 10° WNW 02:54:42 32° WSW 03:01:28 10° S visible
28 Apr 5.4 20:29:17 10° WNW 20:34:05 27° NNW 20:39:28 10° NE visible
28 Apr 5.4 22:21:37 10° NW 22:26:53 28° NNE 22:32:51 10° ENE visible
29 Apr 4.2 00:12:33 10° NW 00:19:00 60° NE 00:26:34 10° ESE visible
29 Apr 4.1 02:03:27 10° NW 02:09:55 45° WSW 02:17:23 10° S visible
29 Apr 5.2 19:43:42 10° W 19:48:38 31° NNW 19:54:10 10° NE visible
29 Apr 5.5 21:36:24 10° NW 21:41:22 26° N 21:46:59 10° ENE visible
29 Apr 4.6 23:27:37 10° NW 23:33:47 46° NNE 23:40:58 10° ESE visible
30 Apr 3.8 01:18:22 10° NW 01:25:02 64° SW 01:31:21 16° SSE visible
30 Apr 5.2 03:10:52 10° WNW 03:15:04 17° WSW 03:18:34 12° SW visible
30 Apr 5.5 20:51:02 10° NW 20:55:50 25° N 21:01:14 10° NE visible
30 Apr 4.9 22:42:40 10° NW 22:48:28 37° NNE 22:55:11 10° E visible
